contact:dominique.lefevre@mio.osupytheas.fr, maurice.libes@osupytheas.fr, didier.mallarino@osupytheas.fr
Project:EMSO http://www.emso-fr.org/EMSO-France
Depth: 2436.0 m
Title:EMSO Ligure Ouest : Data MII capteur CSTAR
DateTime,Latitude,Longitude,Instrument_Serial,Reference_Counts,Signal_Counts,Corrected_Signal_raw_counts,Calculated_Beam_c_inverse_meters,Internal_thermistor_counts
DateTime,Latitude,Longitude,Instrument_Serial,Reference_Counts,Signal_Counts,Corrected_Signal_raw_counts,Calculated_Beam_c_inverse_meters,Internal_thermistor_counts
2023-11-29T00:00:36,42.805,6.029,CST-1368DR,4098,4347,11239,01.316,553
2023-11-29T00:03:38,42.805,6.029,CST-1368DR,4098,4346,11238,01.316,553
2023-11-29T00:06:39,42.805,6.029,CST-1368DR,4098,4347,11240,01.315,553
2023-11-29T00:09:41,42.805,6.029,CST-1368DR,4098,4346,11238,01.316,553
2023-11-29T00:12:42,42.805,6.029,CST-1368DR,4098,4347,11239,01.316,553
2023-11-29T00:15:44,42.805,6.029,CST-1368DR,4098,4346,11238,01.316,553
2023-11-29T00:18:45,42.805,6.029,CST-1368DR,4098,4347,11240,01.315,553
2023-11-29T00:21:47,42.805,6.029,CST-1368DR,4098,4346,11238,01.316,553
2023-11-29T00:24:49,42.805,6.029,CST-1368DR,4098,4346,11237,01.316,553
2023-11-29T00:27:50,42.805,6.029,CST-1368DR,4098,4345,11235,01.317,553
2023-11-29T00:30:52,42.805,6.029,CST-1368DR,4098,4346,11237,01.316,553
2023-11-29T00:33:53,42.805,6.029,CST-1368DR,4098,4346,11237,01.316,553
2023-11-29T00:36:55,42.805,6.029,CST-1368DR,4098,4345,11234,01.317,553
2023-11-29T00:39:57,42.805,6.029,CST-1368DR,4098,4346,11238,01.316,553
2023-11-29T00:42:58,42.805,6.029,CST-1368DR,4098,4346,11236,01.317,553
2023-11-29T00:46:00,42.805,6.029,CST-1368DR,4098,4345,11234,01.317,553
2023-11-29T00:49:01,42.805,6.029,CST-1368DR,4098,4345,11234,01.317,553
2023-11-29T00:52:03,42.805,6.029,CST-1368DR,4098,4347,11239,01.316,553
2023-11-29T00:55:04,42.805,6.029,CST-1368DR,4098,4347,11239,01.316,553
2023-11-29T00:58:06,42.805,6.029,CST-1368DR,4098,4345,11236,01.317,553
2023-11-29T01:01:08,42.805,6.029,CST-1368DR,4098,4345,11235,01.317,553
2023-11-29T01:04:09,42.805,6.029,CST-1368DR,4098,4346,11236,01.317,553
2023-11-29T01:07:11,42.805,6.029,CST-1368DR,4098,4344,11233,01.318,553
2023-11-29T01:10:12,42.805,6.029,CST-1368DR,4098,4346,11237,01.316,553
2023-11-29T01:13:14,42.805,6.029,CST-1368DR,4098,4346,11236,01.317,553
2023-11-29T01:16:15,42.805,6.029,CST-1368DR,4098,4345,11236,01.317,553
2023-11-29T01:19:17,42.805,6.029,CST-1368DR,4098,4346,11238,01.316,553
2023-11-29T01:22:19,42.805,6.029,CST-1368DR,4098,4346,11237,01.316,553
2023-11-29T01:25:20,42.805,6.029,CST-1368DR,4098,4341,11223,01.321,553
2023-11-29T01:28:22,42.805,6.029,CST-1368DR,4098,4346,11238,01.316,553
2023-11-29T01:31:23,42.805,6.029,CST-1368DR,4098,4345,11236,01.317,553
2023-11-29T01:34:25,42.805,6.029,CST-1368DR,4098,4347,11239,01.316,553
2023-11-29T01:37:26,42.805,6.029,CST-1368DR,4098,4347,11239,01.316,553
2023-11-29T01:40:28,42.805,6.029,CST-1368DR,4098,4343,11229,01.319,553
2023-11-29T01:43:30,42.805,6.029,CST-1368DR,4098,4344,11232,01.318,553
2023-11-29T01:46:31,42.805,6.029,CST-1368DR,4098,4344,11232,01.318,553
2023-11-29T01:49:33,42.805,6.029,CST-1368DR,4098,4342,11226,01.320,553
2023-11-29T01:52:34,42.805,6.029,CST-1368DR,4098,4344,11231,01.318,553
2023-11-29T01:55:36,42.805,6.029,CST-1368DR,4098,4344,11231,01.318,553
2023-11-29T01:58:38,42.805,6.029,CST-1368DR,4098,4342,11226,01.320,553
2023-11-29T02:01:39,42.805,6.029,CST-1368DR,4098,4342,11228,01.320,553
2023-11-29T02:04:41,42.805,6.029,CST-1368DR,4098,4344,11231,01.318,553
2023-11-29T02:07:42,42.805,6.029,CST-1368DR,4098,4342,11227,01.320,553
2023-11-29T02:10:44,42.805,6.029,CST-1368DR,4098,4342,11227,01.320,553
2023-11-29T02:13:45,42.805,6.029,CST-1368DR,4098,4343,11229,01.319,553
2023-11-29T02:16:47,42.805,6.029,CST-1368DR,4098,4344,11231,01.318,553
2023-11-29T02:19:49,42.805,6.029,CST-1368DR,4098,4342,11228,01.320,553
2023-11-29T02:22:50,42.805,6.029,CST-1368DR,4098,4343,11229,01.319,553
2023-11-29T02:25:52,42.805,6.029,CST-1368DR,4098,4343,11229,01.319,553
2023-11-29T02:28:53,42.805,6.029,CST-1368DR,4098,4343,11229,01.319,553
2023-11-29T02:31:55,42.805,6.029,CST-1368DR,4098,4342,11228,01.320,553
2023-11-29T02:34:57,42.805,6.029,CST-1368DR,4098,4343,11230,01.319,553
2023-11-29T02:37:58,42.805,6.029,CST-1368DR,4098,4344,11232,01.318,553
2023-11-29T02:41:00,42.805,6.029,CST-1368DR,4098,4345,11234,01.317,553
2023-11-29T02:44:01,42.805,6.029,CST-1368DR,4098,4342,11228,01.320,553
2023-11-29T02:47:03,42.805,6.029,CST-1368DR,4098,4342,11227,01.320,553
2023-11-29T02:50:04,42.805,6.029,CST-1368DR,4098,4344,11231,01.318,553
2023-11-29T02:53:06,42.805,6.029,CST-1368DR,4098,4344,11232,01.318,553
2023-11-29T02:56:08,42.805,6.029,CST-1368DR,4098,4345,11235,01.317,553
2023-11-29T02:59:09,42.805,6.029,CST-1368DR,4098,4345,11234,01.317,553
2023-11-29T03:02:11,42.805,6.029,CST-1368DR,4098,4343,11229,01.319,553
2023-11-29T03:05:12,42.805,6.029,CST-1368DR,4098,4343,11229,01.319,553
2023-11-29T03:08:14,42.805,6.029,CST-1368DR,4098,4342,11227,01.320,553
2023-11-29T03:11:15,42.805,6.029,CST-1368DR,4098,4343,11230,01.319,553
2023-11-29T03:14:17,42.805,6.029,CST-1368DR,4098,4345,11234,01.317,553
2023-11-29T03:17:19,42.805,6.029,CST-1368DR,4098,4342,11228,01.320,553
2023-11-29T03:20:20,42.805,6.029,CST-1368DR,4098,4344,11232,01.318,553
2023-11-29T03:23:22,42.805,6.029,CST-1368DR,4098,4344,11231,01.318,553
2023-11-29T03:26:23,42.805,6.029,CST-1368DR,4098,4346,11238,01.316,553
2023-11-29T03:29:25,42.805,6.029,CST-1368DR,4098,4344,11233,01.318,553
2023-11-29T03:32:27,42.805,6.029,CST-1368DR,4098,4342,11228,01.320,553
2023-11-29T03:35:28,42.805,6.029,CST-1368DR,4098,4343,11230,01.319,553
2023-11-29T03:38:30,42.805,6.029,CST-1368DR,4098,4344,11233,01.318,553
2023-11-29T03:41:31,42.805,6.029,CST-1368DR,4098,4344,11233,01.318,553
2023-11-29T03:44:33,42.805,6.029,CST-1368DR,4098,4344,11231,01.318,553
2023-11-29T03:47:34,42.805,6.029,CST-1368DR,4098,4345,11235,01.317,553
2023-11-29T03:50:36,42.805,6.029,CST-1368DR,4098,4344,11231,01.318,553
2023-11-29T03:53:38,42.805,6.029,CST-1368DR,4098,4345,11235,01.317,553
2023-11-29T03:56:39,42.805,6.029,CST-1368DR,4098,4344,11233,01.318,553
2023-11-29T03:59:41,42.805,6.029,CST-1368DR,4098,4345,11236,01.317,553
2023-11-29T04:02:42,42.805,6.029,CST-1368DR,4098,4345,11235,01.317,553
2023-11-29T04:05:44,42.805,6.029,CST-1368DR,4098,4344,11232,01.318,553
2023-11-29T04:08:45,42.805,6.029,CST-1368DR,4098,4346,11236,01.317,553
2023-11-29T04:11:47,42.805,6.029,CST-1368DR,4098,4349,11246,01.313,553
2023-11-29T04:14:49,42.805,6.029,CST-1368DR,4098,4345,11235,01.317,553
2023-11-29T04:17:50,42.805,6.029,CST-1368DR,4098,4343,11230,01.319,553
2023-11-29T04:20:52,42.805,6.029,CST-1368DR,4098,4345,11234,01.317,553
2023-11-29T04:23:53,42.805,6.029,CST-1368DR,4098,4344,11231,01.318,553
2023-11-29T04:26:55,42.805,6.029,CST-1368DR,4098,4344,11232,01.318,553
2023-11-29T04:29:57,42.805,6.029,CST-1368DR,4098,4343,11229,01.319,553
2023-11-29T04:32:58,42.805,6.029,CST-1368DR,4098,4344,11232,01.318,553
2023-11-29T04:36:00,42.805,6.029,CST-1368DR,4098,4342,11228,01.320,553
2023-11-29T04:39:01,42.805,6.029,CST-1368DR,4098,4342,11227,01.320,553
2023-11-29T04:42:03,42.805,6.029,CST-1368DR,4097,4343,11232,01.318,553
2023-11-29T04:45:04,42.805,6.029,CST-1368DR,4098,4343,11230,01.319,553
2023-11-29T04:48:06,42.805,6.029,CST-1368DR,4097,4344,11234,01.317,553
2023-11-29T04:51:08,42.805,6.029,CST-1368DR,4097,4342,11230,01.319,553
2023-11-29T04:54:09,42.805,6.029,CST-1368DR,4098,4345,11234,01.317,553
2023-11-29T04:57:11,42.805,6.029,CST-1368DR,4097,4343,11231,01.318,553
2023-11-29T05:00:12,42.805,6.029,CST-1368DR,4097,4342,11230,01.319,553
2023-11-29T05:03:14,42.805,6.029,CST-1368DR,4097,4342,11229,01.319,553
2023-11-29T05:06:15,42.805,6.029,CST-1368DR,4098,4344,11233,01.318,553
2023-11-29T05:09:17,42.805,6.029,CST-1368DR,4098,4345,11235,01.317,553
2023-11-29T05:12:19,42.805,6.029,CST-1368DR,4098,4343,11229,01.319,553
2023-11-29T05:15:20,42.805,6.029,CST-1368DR,4098,4344,11232,01.318,553
2023-11-29T05:18:22,42.805,6.029,CST-1368DR,4098,4343,11230,01.319,553
2023-11-29T05:21:23,42.805,6.029,CST-1368DR,4098,4344,11231,01.318,553
2023-11-29T05:24:25,42.805,6.029,CST-1368DR,4098,4344,11232,01.318,553
2023-11-29T05:27:27,42.805,6.029,CST-1368DR,4098,4343,11229,01.319,553
2023-11-29T05:30:28,42.805,6.029,CST-1368DR,4098,4344,11231,01.318,553
2023-11-29T05:33:30,42.805,6.029,CST-1368DR,4098,4345,11235,01.317,553
2023-11-29T05:36:32,42.805,6.029,CST-1368DR,4098,4344,11232,01.318,553
2023-11-29T05:39:33,42.805,6.029,CST-1368DR,4098,4343,11230,01.319,553
2023-11-29T05:42:35,42.805,6.029,CST-1368DR,4098,4342,11228,01.320,553
2023-11-29T05:45:36,42.805,6.029,CST-1368DR,4098,4344,11233,01.318,553
2023-11-29T05:48:38,42.805,6.029,CST-1368DR,4098,4345,11234,01.317,553
2023-11-29T05:51:39,42.805,6.029,CST-1368DR,4097,4344,11235,01.317,553
2023-11-29T05:54:41,42.805,6.029,CST-1368DR,4098,4345,11235,01.317,553
2023-11-29T05:57:43,42.805,6.029,CST-1368DR,4098,4344,11233,01.318,553
2023-11-29T06:00:44,42.805,6.029,CST-1368DR,4098,4344,11232,01.318,553
2023-11-29T06:03:46,42.805,6.029,CST-1368DR,4098,4345,11234,01.317,553
2023-11-29T06:06:47,42.805,6.029,CST-1368DR,4098,4345,11234,01.317,553
2023-11-29T06:09:49,42.805,6.029,CST-1368DR,4098,4344,11232,01.318,553
2023-11-29T06:12:51,42.805,6.029,CST-1368DR,4098,4340,11222,01.322,553
2023-11-29T06:15:52,42.805,6.029,CST-1368DR,4098,4344,11233,01.318,553
2023-11-29T06:18:54,42.805,6.029,CST-1368DR,4098,4343,11229,01.319,553
2023-11-29T06:21:55,42.805,6.029,CST-1368DR,4098,4344,11232,01.318,553
2023-11-29T06:24:57,42.805,6.029,CST-1368DR,4098,4343,11229,01.319,553
2023-11-29T06:27:58,42.805,6.029,CST-1368DR,4098,4344,11232,01.318,553
2023-11-29T06:31:00,42.805,6.029,CST-1368DR,4098,4344,11231,01.318,553
2023-11-29T06:34:02,42.805,6.029,CST-1368DR,4098,4344,11232,01.318,553
2023-11-29T06:37:03,42.805,6.029,CST-1368DR,4098,4344,11231,01.318,553
2023-11-29T06:40:05,42.805,6.029,CST-1368DR,4098,4344,11232,01.318,553
2023-11-29T06:43:06,42.805,6.029,CST-1368DR,4098,4343,11230,01.319,553
2023-11-29T06:46:08,42.805,6.029,CST-1368DR,4098,4341,11224,01.321,553
2023-11-29T06:49:09,42.805,6.029,CST-1368DR,4098,4342,11227,01.320,553
2023-11-29T06:52:11,42.805,6.029,CST-1368DR,4097,4343,11231,01.318,553
2023-11-29T06:55:13,42.805,6.029,CST-1368DR,4098,4343,11229,01.319,553
2023-11-29T06:58:14,42.805,6.029,CST-1368DR,4098,4342,11227,01.320,553
2023-11-29T07:01:16,42.805,6.029,CST-1368DR,4097,4342,11229,01.319,553
2023-11-29T07:04:17,42.805,6.029,CST-1368DR,4098,4343,11230,01.319,553
2023-11-29T07:07:19,42.805,6.029,CST-1368DR,4097,4343,11232,01.318,553
2023-11-29T07:10:20,42.805,6.029,CST-1368DR,4098,4344,11231,01.318,553
2023-11-29T07:13:22,42.805,6.029,CST-1368DR,4098,4342,11228,01.320,553
2023-11-29T07:16:24,42.805,6.029,CST-1368DR,4098,4345,11235,01.317,553
2023-11-29T07:19:25,42.805,6.029,CST-1368DR,4098,4343,11229,01.319,553
2023-11-29T07:22:27,42.805,6.029,CST-1368DR,4098,4344,11231,01.318,553
2023-11-29T07:25:28,42.805,6.029,CST-1368DR,4098,4343,11230,01.319,553
2023-11-29T07:28:30,42.805,6.029,CST-1368DR,4098,4343,11229,01.319,553
2023-11-29T07:31:32,42.805,6.029,CST-1368DR,4097,4342,11230,01.319,553
2023-11-29T07:34:33,42.805,6.029,CST-1368DR,4098,4344,11231,01.318,553
2023-11-29T07:37:35,42.805,6.029,CST-1368DR,4098,4342,11227,01.320,553
2023-11-29T07:40:36,42.805,6.029,CST-1368DR,4097,4341,11227,01.320,552
2023-11-29T07:43:38,42.805,6.029,CST-1368DR,4098,4341,11225,01.321,553
2023-11-29T07:46:40,42.805,6.029,CST-1368DR,4098,4343,11230,01.319,553
2023-11-29T07:49:41,42.805,6.029,CST-1368DR,4098,4344,11231,01.318,553
2023-11-29T07:52:43,42.805,6.029,CST-1368DR,4098,4343,11229,01.319,553
2023-11-29T07:55:44,42.805,6.029,CST-1368DR,4098,4343,11229,01.319,553
2023-11-29T07:58:46,42.805,6.029,CST-1368DR,4098,4343,11229,01.319,553
2023-11-29T08:01:47,42.805,6.029,CST-1368DR,4097,4337,11216,01.324,553
2023-11-29T08:04:49,42.805,6.029,CST-1368DR,4098,4342,11227,01.320,553
2023-11-29T08:07:51,42.805,6.029,CST-1368DR,4098,4342,11227,01.320,553
2023-11-29T08:10:52,42.805,6.029,CST-1368DR,4098,4341,11225,01.321,553
2023-11-29T08:13:54,42.805,6.029,CST-1368DR,4098,4342,11227,01.320,553
2023-11-29T08:16:55,42.805,6.029,CST-1368DR,4097,4340,11225,01.321,553
2023-11-29T08:19:57,42.805,6.029,CST-1368DR,4098,4342,11226,01.320,553
2023-11-29T08:22:59,42.805,6.029,CST-1368DR,4098,4342,11227,01.320,553
2023-11-29T08:26:00,42.805,6.029,CST-1368DR,4097,4342,11230,01.319,553
2023-11-29T08:29:02,42.805,6.029,CST-1368DR,4097,4342,11230,01.319,553
2023-11-29T08:32:03,42.805,6.029,CST-1368DR,4097,4342,11230,01.319,553
2023-11-29T08:35:05,42.805,6.029,CST-1368DR,4097,4342,11230,01.319,553
2023-11-29T08:38:06,42.805,6.029,CST-1368DR,4097,4341,11226,01.320,553
2023-11-29T08:41:08,42.805,6.029,CST-1368DR,4097,4342,11230,01.319,553
2023-11-29T08:44:10,42.805,6.029,CST-1368DR,4097,4342,11230,01.319,553
2023-11-29T08:47:11,42.805,6.029,CST-1368DR,4097,4339,11223,01.321,553
2023-11-29T08:50:13,42.805,6.029,CST-1368DR,4097,4341,11227,01.320,553
2023-11-29T08:53:14,42.805,6.029,CST-1368DR,4097,4341,11226,01.320,553
2023-11-29T08:56:16,42.805,6.029,CST-1368DR,4097,4341,11227,01.320,553
2023-11-29T08:59:17,42.805,6.029,CST-1368DR,4097,4342,11229,01.319,553
2023-11-29T09:02:19,42.805,6.029,CST-1368DR,4097,4342,11229,01.319,553
2023-11-29T09:05:21,42.805,6.029,CST-1368DR,4098,4341,11225,01.321,553
2023-11-29T09:08:22,42.805,6.029,CST-1368DR,4098,4342,11226,01.320,553
2023-11-29T09:11:24,42.805,6.029,CST-1368DR,4098,4343,11229,01.319,553
2023-11-29T09:14:25,42.805,6.029,CST-1368DR,4098,4341,11225,01.321,553
2023-11-29T09:17:27,42.805,6.029,CST-1368DR,4097,4341,11227,01.320,553
2023-11-29T09:20:29,42.805,6.029,CST-1368DR,4097,4338,11218,01.323,553
2023-11-29T09:23:30,42.805,6.029,CST-1368DR,4097,4344,11234,01.317,553
2023-11-29T09:26:32,42.805,6.029,CST-1368DR,4097,4343,11233,01.318,553
2023-11-29T09:29:33,42.805,6.029,CST-1368DR,4097,4343,11232,01.318,553
2023-11-29T09:32:35,42.805,6.029,CST-1368DR,4098,4341,11225,01.321,553
2023-11-29T09:35:37,42.805,6.029,CST-1368DR,4097,4341,11228,01.320,553
2023-11-29T09:38:38,42.805,6.029,CST-1368DR,4097,4342,11229,01.319,553
2023-11-29T09:41:40,42.805,6.029,CST-1368DR,4097,4342,11230,01.319,553
2023-11-29T09:44:41,42.805,6.029,CST-1368DR,4097,4342,11229,01.319,553
2023-11-29T09:47:43,42.805,6.029,CST-1368DR,4098,4342,11226,01.320,552
2023-11-29T09:50:44,42.805,6.029,CST-1368DR,4098,4342,11227,01.320,553
2023-11-29T09:53:46,42.805,6.029,CST-1368DR,4097,4342,11229,01.319,553
2023-11-29T09:56:48,42.805,6.029,CST-1368DR,4097,4342,11230,01.319,553
2023-11-29T09:59:49,42.805,6.029,CST-1368DR,4098,4342,11226,01.320,553
2023-11-29T10:02:51,42.805,6.029,CST-1368DR,4098,4342,11227,01.320,553
2023-11-29T10:05:52,42.805,6.029,CST-1368DR,4097,4342,11230,01.319,553
2023-11-29T10:08:54,42.805,6.029,CST-1368DR,4098,4341,11225,01.321,553
2023-11-29T10:11:55,42.805,6.029,CST-1368DR,4098,4343,11229,01.319,553
2023-11-29T10:14:57,42.805,6.029,CST-1368DR,4097,4344,11235,01.317,553
2023-11-29T10:17:59,42.805,6.029,CST-1368DR,4098,4343,11229,01.319,553
2023-11-29T10:21:00,42.805,6.029,CST-1368DR,4098,4343,11229,01.319,553
2023-11-29T10:24:02,42.805,6.029,CST-1368DR,4098,4344,11232,01.318,553
2023-11-29T10:27:03,42.805,6.029,CST-1368DR,4097,4342,11230,01.319,553
2023-11-29T10:30:05,42.805,6.029,CST-1368DR,4097,4343,11233,01.318,553
2023-11-29T10:33:07,42.805,6.029,CST-1368DR,4097,4342,11230,01.319,553
2023-11-29T10:36:08,42.805,6.029,CST-1368DR,4097,4344,11234,01.317,553
2023-11-29T10:39:10,42.805,6.029,CST-1368DR,4097,4343,11233,01.318,553
2023-11-29T10:42:11,42.805,6.029,CST-1368DR,4097,4344,11234,01.317,553
2023-11-29T10:45:13,42.805,6.029,CST-1368DR,4097,4342,11230,01.319,552
2023-11-29T10:48:14,42.805,6.029,CST-1368DR,4097,4344,11234,01.317,553
2023-11-29T10:51:16,42.805,6.029,CST-1368DR,4097,4341,11226,01.320,553
2023-11-29T10:54:18,42.805,6.029,CST-1368DR,4097,4341,11227,01.320,553
2023-11-29T10:57:19,42.805,6.029,CST-1368DR,4097,4344,11234,01.317,553
2023-11-29T11:00:21,42.805,6.029,CST-1368DR,4097,4343,11233,01.318,553
2023-11-29T11:03:22,42.805,6.029,CST-1368DR,4097,4344,11234,01.317,553
2023-11-29T11:06:24,42.805,6.029,CST-1368DR,4097,4342,11230,01.319,553
2023-11-29T11:09:25,42.805,6.029,CST-1368DR,4097,4344,11235,01.317,553
2023-11-29T11:12:27,42.805,6.029,CST-1368DR,4097,4344,11234,01.317,553
2023-11-29T11:15:29,42.805,6.029,CST-1368DR,4097,4344,11234,01.317,553
2023-11-29T11:18:30,42.805,6.029,CST-1368DR,4097,4342,11230,01.319,553
2023-11-29T11:21:32,42.805,6.029,CST-1368DR,4097,4344,11234,01.317,553
2023-11-29T11:24:33,42.805,6.029,CST-1368DR,4097,4344,11234,01.317,553
2023-11-29T11:27:35,42.805,6.029,CST-1368DR,4097,4343,11233,01.318,553
2023-11-29T11:30:37,42.805,6.029,CST-1368DR,4097,4342,11230,01.319,553
2023-11-29T11:33:38,42.805,6.029,CST-1368DR,4097,4343,11231,01.318,553
2023-11-29T11:36:40,42.805,6.029,CST-1368DR,4097,4343,11232,01.318,552
2023-11-29T11:39:41,42.805,6.029,CST-1368DR,4097,4342,11230,01.319,553
2023-11-29T11:42:43,42.805,6.029,CST-1368DR,4097,4343,11232,01.318,553
2023-11-29T11:45:44,42.805,6.029,CST-1368DR,4097,4343,11231,01.318,553
2023-11-29T11:48:46,42.805,6.029,CST-1368DR,4098,4343,11229,01.319,553
2023-11-29T11:51:48,42.805,6.029,CST-1368DR,4097,4342,11229,01.319,553
2023-11-29T11:54:49,42.805,6.029,CST-1368DR,4097,4327,11190,01.333,553
2023-11-29T11:57:51,42.805,6.029,CST-1368DR,4097,4327,11191,01.333,553
2023-11-29T12:00:52,42.805,6.029,CST-1368DR,4097,4327,11191,01.333,553
2023-11-29T12:03:54,42.805,6.029,CST-1368DR,4098,4343,11229,01.319,553
2023-11-29T12:06:55,42.805,6.029,CST-1368DR,4097,4342,11229,01.319,553
2023-11-29T12:09:57,42.805,6.029,CST-1368DR,4097,4342,11229,01.319,553
2023-11-29T12:12:59,42.805,6.029,CST-1368DR,4098,4342,11227,01.320,553
2023-11-29T12:16:00,42.805,6.029,CST-1368DR,4097,4342,11229,01.319,553
2023-11-29T12:19:02,42.805,6.029,CST-1368DR,4098,4341,11225,01.321,553
2023-11-29T12:22:03,42.805,6.029,CST-1368DR,4097,4342,11230,01.319,553
2023-11-29T12:25:05,42.805,6.029,CST-1368DR,4098,4344,11231,01.318,553
2023-11-29T12:28:06,42.805,6.029,CST-1368DR,4097,4343,11233,01.318,553
2023-11-29T12:31:08,42.805,6.029,CST-1368DR,4097,4343,11231,01.318,553
2023-11-29T12:34:10,42.805,6.029,CST-1368DR,4098,4344,11232,01.318,553
2023-11-29T12:37:11,42.805,6.029,CST-1368DR,4097,4343,11233,01.318,553
2023-11-29T12:40:13,42.805,6.029,CST-1368DR,4097,4344,11235,01.317,553
2023-11-29T12:43:14,42.805,6.029,CST-1368DR,4097,4344,11234,01.317,553
2023-11-29T12:46:16,42.805,6.029,CST-1368DR,4097,4343,11233,01.318,553
2023-11-29T12:49:18,42.805,6.029,CST-1368DR,4097,4344,11235,01.317,553
2023-11-29T12:52:19,42.805,6.029,CST-1368DR,4097,4343,11231,01.318,553
2023-11-29T12:55:21,42.805,6.029,CST-1368DR,4097,4339,11221,01.322,553
2023-11-29T12:58:22,42.805,6.029,CST-1368DR,4097,4339,11222,01.322,553
2023-11-29T13:01:24,42.805,6.029,CST-1368DR,4097,4338,11218,01.323,553
2023-11-29T13:04:25,42.805,6.029,CST-1368DR,4097,4339,11221,01.322,553
2023-11-29T13:07:27,42.805,6.029,CST-1368DR,4097,4342,11229,01.319,553
2023-11-29T13:10:29,42.805,6.029,CST-1368DR,4097,4335,11210,01.326,553
2023-11-29T13:13:30,42.805,6.029,CST-1368DR,4097,4335,11212,01.325,553
2023-11-29T13:16:32,42.805,6.029,CST-1368DR,4097,4338,11220,01.322,553
2023-11-29T13:19:33,42.805,6.029,CST-1368DR,4097,4335,11212,01.325,553
2023-11-29T13:22:35,42.805,6.029,CST-1368DR,4097,4331,11201,01.329,553
2023-11-29T13:25:36,42.805,6.029,CST-1368DR,4097,4339,11221,01.322,553
2023-11-29T13:28:38,42.805,6.029,CST-1368DR,4097,4341,11227,01.320,553
2023-11-29T13:31:43,42.805,6.029,CST-1368DR,4097,4339,11223,01.321,553
2023-11-29T13:34:44,42.805,6.029,CST-1368DR,4097,4342,11229,01.319,553
2023-11-29T13:37:46,42.805,6.029,CST-1368DR,4097,4341,11227,01.320,553
2023-11-29T13:40:47,42.805,6.029,CST-1368DR,4097,4342,11229,01.319,553
2023-11-29T13:43:49,42.805,6.029,CST-1368DR,4097,4342,11230,01.319,553
2023-11-29T13:46:50,42.805,6.029,CST-1368DR,4097,4340,11225,01.321,553
2023-11-29T13:49:52,42.805,6.029,CST-1368DR,4097,4339,11221,01.322,553
2023-11-29T13:52:54,42.805,6.029,CST-1368DR,4097,4343,11231,01.318,553
2023-11-29T13:55:55,42.805,6.029,CST-1368DR,4097,4345,11237,01.316,552
2023-11-29T13:58:57,42.805,6.029,CST-1368DR,4097,4340,11225,01.321,553
2023-11-29T14:01:58,42.805,6.029,CST-1368DR,4097,4342,11230,01.319,553
2023-11-29T14:05:00,42.805,6.029,CST-1368DR,4097,4344,11234,01.317,553
2023-11-29T14:08:01,42.805,6.029,CST-1368DR,4097,4341,11228,01.320,553
2023-11-29T14:11:03,42.805,6.029,CST-1368DR,4097,4342,11229,01.319,552
2023-11-29T14:14:05,42.805,6.029,CST-1368DR,4097,4339,11223,01.321,553
2023-11-29T14:17:06,42.805,6.029,CST-1368DR,4097,4345,11237,01.316,553
2023-11-29T14:20:08,42.805,6.029,CST-1368DR,4097,4345,11237,01.316,553
2023-11-29T14:23:09,42.805,6.029,CST-1368DR,4097,4344,11235,01.317,553
2023-11-29T14:26:11,42.805,6.029,CST-1368DR,4097,4339,11223,01.321,553
2023-11-29T14:29:13,42.805,6.029,CST-1368DR,4097,4339,11223,01.321,553
2023-11-29T14:32:14,42.805,6.029,CST-1368DR,4097,4341,11226,01.320,553
2023-11-29T14:35:16,42.805,6.029,CST-1368DR,4097,4341,11228,01.320,553
2023-11-29T14:38:17,42.805,6.029,CST-1368DR,4097,4343,11232,01.318,553
2023-11-29T14:41:19,42.805,6.029,CST-1368DR,4097,4341,11228,01.320,553
2023-11-29T14:44:20,42.805,6.029,CST-1368DR,4097,4343,11232,01.318,553
2023-11-29T14:47:22,42.805,6.029,CST-1368DR,4097,4341,11227,01.320,553
2023-11-29T14:50:24,42.805,6.029,CST-1368DR,4097,4340,11225,01.321,553
2023-11-29T14:53:25,42.805,6.029,CST-1368DR,4097,4340,11225,01.321,553
2023-11-29T14:56:27,42.805,6.029,CST-1368DR,4097,4344,11235,01.317,553
2023-11-29T14:59:28,42.805,6.029,CST-1368DR,4097,4342,11229,01.319,553
2023-11-29T15:02:30,42.805,6.029,CST-1368DR,4097,4341,11227,01.320,553
2023-11-29T15:05:31,42.805,6.029,CST-1368DR,4097,4332,11203,01.328,553
2023-11-29T15:08:33,42.805,6.029,CST-1368DR,4097,4333,11205,01.328,553
2023-11-29T15:11:35,42.805,6.029,CST-1368DR,4097,4329,11196,01.331,553
2023-11-29T15:14:36,42.805,6.029,CST-1368DR,4097,4331,11201,01.329,553
2023-11-29T15:17:38,42.805,6.029,CST-1368DR,4097,4331,11201,01.329,553
2023-11-29T15:20:39,42.805,6.029,CST-1368DR,4097,4336,11214,01.325,553
2023-11-29T15:23:41,42.805,6.029,CST-1368DR,4097,4331,11201,01.329,553
2023-11-29T15:26:42,42.805,6.029,CST-1368DR,4097,4331,11202,01.329,553
2023-11-29T15:29:44,42.805,6.029,CST-1368DR,4097,4331,11200,01.330,553
2023-11-29T15:32:46,42.805,6.029,CST-1368DR,4097,4332,11204,01.328,553
2023-11-29T15:35:47,42.805,6.029,CST-1368DR,4097,4331,11202,01.329,553
2023-11-29T15:38:49,42.805,6.029,CST-1368DR,4097,4331,11201,01.329,553
2023-11-29T15:41:50,42.805,6.029,CST-1368DR,4097,4330,11199,01.330,553
2023-11-29T15:44:52,42.805,6.029,CST-1368DR,4097,4332,11203,01.328,553
2023-11-29T15:47:53,42.805,6.029,CST-1368DR,4097,4331,11202,01.329,553
2023-11-29T15:50:55,42.805,6.029,CST-1368DR,4097,4331,11201,01.329,553
2023-11-29T15:53:57,42.805,6.029,CST-1368DR,4097,4330,11199,01.330,553
2023-11-29T15:56:58,42.805,6.029,CST-1368DR,4097,4334,11210,01.326,553
2023-11-29T16:00:00,42.805,6.029,CST-1368DR,4097,4335,11212,01.325,553
2023-11-29T16:03:01,42.805,6.029,CST-1368DR,4097,4333,11205,01.328,553
2023-11-29T16:06:03,42.805,6.029,CST-1368DR,4097,4333,11207,01.327,553
2023-11-29T16:09:04,42.805,6.029,CST-1368DR,4097,4333,11207,01.327,553
2023-11-29T16:12:06,42.805,6.029,CST-1368DR,4097,4334,11208,01.327,553
2023-11-29T16:15:08,42.805,6.029,CST-1368DR,4097,4333,11207,01.327,553
2023-11-29T16:18:09,42.805,6.029,CST-1368DR,4097,4333,11207,01.327,553
2023-11-29T16:21:11,42.805,6.029,CST-1368DR,4097,4331,11202,01.329,553
2023-11-29T16:24:12,42.805,6.029,CST-1368DR,4097,4330,11199,01.330,553
2023-11-29T16:27:14,42.805,6.029,CST-1368DR,4097,4333,11207,01.327,553
2023-11-29T16:30:16,42.805,6.029,CST-1368DR,4097,4333,11207,01.327,553
2023-11-29T16:33:17,42.805,6.029,CST-1368DR,4097,4333,11205,01.328,553
2023-11-29T16:36:19,42.805,6.029,CST-1368DR,4097,4333,11207,01.327,553